| time (UTC) | temp F | wind direction | speed MPH | gust MPH | rain 1hr in | rain 24hr in | rain mn in | humidity % | barometer mb |
| 20260506233311 | 49 | 10 | 3.0 | 8.0 | 0.00 | 0.38 | 0.38 | 89 | 1015.4 |
| 20260506232808 | 49 | 5 | 3.0 | 9.0 | 0.00 | 0.38 | 0.38 | 89 | 1015.4 |
| 20260506232309 | 49 | 13 | 3.0 | 9.0 | 0.00 | 0.38 | 0.38 | 89 | 1015.4 |
| 20260506231807 | 49 | 9 | 3.0 | 11.0 | 0.00 | 0.38 | 0.38 | 89 | 1015.4 |
| 20260506231308 | 49 | 11 | 4.0 | 13.0 | 0.00 | 0.38 | 0.38 | 89 | 1015.4 |
| 20260506230808 | 49 | 30 | 5.0 | 13.0 | 0.00 | 0.38 | 0.38 | 89 | 1015.2 |
| 20260506230308 | 49 | 5 | 5.0 | 12.0 | 0.00 | 0.38 | 0.38 | 89 | 1015.2 |
| 20260506225806 | 49 | 21 | 4.0 | 9.0 | 0.00 | 0.38 | 0.38 | 90 | 1015.1 |
| 20260506225307 | 49 | 19 | 4.0 | 8.0 | 0.00 | 0.38 | 0.38 | 90 | 1015.0 |
| 20260506224806 | 49 | 19 | 4.0 | 8.0 | 0.00 | 0.38 | 0.38 | 90 | 1014.9 |
| 20260506224541 | 49 | 11 | 4.0 | 11.0 | 0.00 | 0.38 | 0.38 | 90 | 1014.7 |
| 20260506223809 | 49 | 14 | 5.0 | 11.0 | 0.00 | 0.38 | 0.38 | 91 | 1014.6 |
| 20260506223309 | 49 | 21 | 4.0 | 10.0 | 0.00 | 0.38 | 0.38 | 91 | 1014.6 |
| 20260506222809 | 49 | 320 | 4.0 | 10.0 | 0.00 | 0.38 | 0.38 | 91 | 1014.5 |
| 20260506222307 | 49 | 0 | 4.0 | 9.0 | 0.00 | 0.38 | 0.38 | 92 | 1014.5 |
| 20260506221808 | 49 | 348 | 5.0 | 14.0 | 0.01 | 0.38 | 0.38 | 92 | 1014.4 |
| 20260506221306 | 50 | 28 | 6.0 | 14.0 | 0.01 | 0.38 | 0.38 | 92 | 1014.2 |
| 20260506220807 | 50 | 24 | 5.0 | 12.0 | 0.03 | 0.38 | 0.38 | 91 | 1014.0 |
| 20260506220308 | 50 | 38 | 6.0 | 12.0 | 0.03 | 0.38 | 0.38 | 91 | 1014.0 |
| 20260506215808 | 50 | 30 | 7.0 | 14.0 | 0.04 | 0.38 | 0.38 | 91 | 1013.8 |
| 20260506215309 | 50 | 12 | 7.0 | 15.0 | 0.04 | 0.38 | 0.38 | 91 | 1013.6 |
| 20260506214806 | 50 | 15 | 7.0 | 15.0 | 0.04 | 0.38 | 0.38 | 91 | 1013.6 |
| 20260506214538 | 50 | 350 | 7.0 | 14.0 | 0.05 | 0.38 | 0.38 | 92 | 1013.5 |
| 20260506213806 | 50 | 30 | 7.0 | 13.0 | 0.05 | 0.38 | 0.38 | 92 | 1013.3 |
| 20260506213307 | 50 | 336 | 7.0 | 15.0 | 0.05 | 0.38 | 0.38 | 92 | 1013.3 |
| 20260506212806 | 50 | 27 | 6.0 | 15.0 | 0.05 | 0.38 | 0.38 | 92 | 1013.2 |
| 20260506212539 | 51 | 14 | 6.0 | 15.0 | 0.05 | 0.38 | 0.38 | 91 | 1013.0 |
| 20260506211808 | 51 | 22 | 8.0 | 16.0 | 0.04 | 0.37 | 0.37 | 92 | 1012.8 |
| 20260506211307 | 51 | 9 | 9.0 | 18.0 | 0.04 | 0.37 | 0.37 | 91 | 1012.6 |
| 20260506211039 | 51 | 32 | 8.0 | 18.0 | 0.02 | 0.35 | 0.36 | 91 | 1012.4 |
| 20260506210306 | 52 | 5 | 8.0 | 16.0 | 0.02 | 0.35 | 0.35 | 91 | 1012.3 |
| 20260506205807 | 52 | 24 | 8.0 | 16.0 | 0.01 | 0.34 | 0.34 | 91 | 1012.2 |
| 20260506205308 | 52 | 29 | 8.0 | 16.0 | 0.01 | 0.34 | 0.34 | 91 | 1012.0 |
| 20260506204806 | 53 | 28 | 8.0 | 16.0 | 0.01 | 0.34 | 0.34 | 91 | 1012.1 |
| 20260506204308 | 53 | 20 | 7.0 | 14.0 | 0.00 | 0.33 | 0.33 | 90 | 1012.0 |
| 20260506203806 | 54 | 5 | 7.0 | 17.0 | 0.00 | 0.33 | 0.33 | 89 | 1011.7 |
| 20260506203539 | 55 | 5 | 8.0 | 17.0 | 0.00 | 0.33 | 0.33 | 87 | 1011.7 |
| 20260506202809 | 56 | 9 | 6.0 | 16.0 | 0.00 | 0.33 | 0.33 | 84 | 1011.6 |
| 20260506202307 | 60 | 38 | 3.0 | 15.0 | 0.00 | 0.33 | 0.33 | 82 | 1011.5 |
| 20260506201808 | 62 | 224 | 2.0 | 7.0 | 0.00 | 0.33 | 0.33 | 88 | 1011.1 |
| 20260506201304 | 62 | 210 | 1.0 | 7.0 | 0.00 | 0.33 | 0.33 | 88 | 1011.3 |
| 20260506200800 | 61 | 227 | 1.0 | 6.0 | 0.00 | 0.33 | 0.33 | 88 | 1011.3 |
| 20260506200301 | 61 | 259 | 1.0 | 5.0 | 0.00 | 0.33 | 0.33 | 88 | 1011.4 |
| 20260506195801 | 61 | 257 | 2.0 | 5.0 | 0.00 | 0.33 | 0.33 | 88 | 1011.4 |
| 20260506195301 | 61 | 257 | 2.0 | 5.0 | 0.00 | 0.33 | 0.33 | 88 | 1011.4 |
| 20260506194801 | 61 | 258 | 2.0 | 6.0 | 0.00 | 0.33 | 0.33 | 88 | 1011.5 |
| 20260506194303 | 61 | 240 | 2.0 | 6.0 | 0.00 | 0.33 | 0.33 | 88 | 1011.5 |
| 20260506194031 | 61 | 238 | 1.0 | 5.0 | 0.00 | 0.33 | 0.33 | 89 | 1011.5 |
| 20260506193531 | 61 | 238 | 1.0 | 6.0 | 0.00 | 0.33 | 0.33 | 88 | 1011.6 |
| 20260506192800 | 61 | 223 | 2.0 | 7.0 | 0.00 | 0.33 | 0.33 | 88 | 1011.7 |
| 20260506192301 | 61 | 229 | 2.0 | 7.0 | 0.00 | 0.33 | 0.33 | 88 | 1011.6 |
| 20260506191801 | 61 | 209 | 2.0 | 7.0 | 0.00 | 0.33 | 0.33 | 88 | 1011.6 |
| 20260506191300 | 61 | 213 | 2.0 | 7.0 | 0.00 | 0.33 | 0.33 | 89 | 1011.6 |
| 20260506191028 | 61 | 215 | 3.0 | 6.0 | 0.00 | 0.33 | 0.33 | 88 | 1011.6 |
| 20260506190531 | 61 | 188 | 3.0 | 10.0 | 0.00 | 0.33 | 0.33 | 88 | 1011.5 |
| 20260506185756 | 61 | 205 | 3.0 | 10.0 | 0.00 | 0.33 | 0.33 | 89 | 1011.5 |
| 20260506185258 | 61 | 207 | 3.0 | 10.0 | 0.00 | 0.33 | 0.33 | 88 | 1011.6 |
| 20260506185030 | 61 | 198 | 3.0 | 9.0 | 0.00 | 0.33 | 0.33 | 89 | 1011.7 |
| 20260506184258 | 61 | 229 | 3.0 | 7.0 | 0.00 | 0.33 | 0.33 | 89 | 1011.8 |
| 20260506183754 | 61 | 202 | 4.0 | 11.0 | 0.00 | 0.33 | 0.33 | 89 | 1011.7 |
| 20260506183255 | 60 | 226 | 3.0 | 11.0 | 0.00 | 0.33 | 0.33 | 89 | 1011.8 |
| 20260506182757 | 60 | 186 | 3.0 | 8.0 | 0.00 | 0.33 | 0.33 | 90 | 1011.8 |
| 20260506182254 | 60 | 185 | 2.0 | 7.0 | 0.00 | 0.33 | 0.33 | 90 | 1011.8 |
| 20260506181754 | 60 | 183 | 2.0 | 6.0 | 0.00 | 0.33 | 0.33 | 90 | 1011.8 |
| 20260506181255 | 60 | 183 | 3.0 | 7.0 | 0.01 | 0.33 | 0.33 | 90 | 1011.9 |
| 20260506180755 | 60 | 187 | 3.0 | 8.0 | 0.01 | 0.33 | 0.33 | 90 | 1011.8 |
| 20260506180255 | 60 | 170 | 5.0 | 9.0 | 0.02 | 0.33 | 0.33 | 90 | 1011.8 |
| 20260506175755 | 60 | 186 | 6.0 | 9.0 | 0.03 | 0.33 | 0.33 | 90 | 1011.8 |
| 20260506175255 | 60 | 192 | 6.0 | 10.0 | 0.03 | 0.33 | 0.33 | 91 | 1011.9 |
| 20260506174754 | 60 | 192 | 6.0 | 10.0 | 0.04 | 0.33 | 0.33 | 91 | 1011.8 |
| 20260506174252 | 60 | 178 | 6.0 | 10.0 | 0.04 | 0.33 | 0.33 | 91 | 1011.9 |
| 20260506173753 | 60 | 192 | 6.0 | 10.0 | 0.04 | 0.33 | 0.33 | 91 | 1011.8 |
| 20260506173526 | 60 | 182 | 4.0 | 10.0 | 0.05 | 0.33 | 0.33 | 91 | 1012.0 |
| 20260506172753 | 60 | 199 | 3.0 | 7.0 | 0.05 | 0.33 | 0.33 | 91 | 1012.1 |
| 20260506172252 | 60 | 202 | 3.0 | 7.0 | 0.05 | 0.33 | 0.33 | 91 | 1012.1 |
| 20260506172024 | 60 | 207 | 3.0 | 6.0 | 0.06 | 0.33 | 0.33 | 91 | 1012.0 |
| 20260506171254 | 60 | 209 | 3.0 | 9.0 | 0.05 | 0.32 | 0.32 | 90 | 1012.1 |
| 20260506170753 | 60 | 214 | 3.0 | 9.0 | 0.05 | 0.32 | 0.32 | 90 | 1012.2 |
| 20260506170524 | 60 | 194 | 2.0 | 7.0 | 0.04 | 0.31 | 0.31 | 90 | 1012.3 |
| 20260506170417 | 60 | 198 | 2.0 | 7.0 | 0.03 | 0.30 | 0.31 | 90 | 1012.3 |
| 20260506165523 | 60 | 192 | 2.0 | 7.0 | 0.04 | 0.30 | 0.30 | 92 | 1012.3 |
| 20260506164750 | 60 | 194 | 2.0 | 7.0 | 0.03 | 0.29 | 0.29 | 90 | 1012.2 |
| 20260506164252 | 60 | 194 | 2.0 | 7.0 | 0.04 | 0.29 | 0.29 | 90 | 1012.2 |
| 20260506163749 | 60 | 192 | 2.0 | 7.0 | 0.05 | 0.29 | 0.29 | 89 | 1012.2 |
| 20260506163251 | 60 | 237 | 2.0 | 9.0 | 0.05 | 0.28 | 0.28 | 90 | 1012.3 |
| 20260506162748 | 60 | 238 | 1.0 | 9.0 | 0.07 | 0.28 | 0.28 | 89 | 1012.3 |
| 20260506162246 | 60 | 232 | 1.0 | 6.0 | 0.08 | 0.28 | 0.28 | 89 | 1012.2 |
| 20260506161748 | 60 | 174 | 2.0 | 10.0 | 0.07 | 0.27 | 0.27 | 89 | 1012.1 |
| 20260506161247 | 60 | 170 | 4.0 | 11.0 | 0.08 | 0.27 | 0.27 | 89 | 1012.2 |
| 20260506160744 | 60 | 211 | 5.0 | 12.0 | 0.09 | 0.27 | 0.27 | 89 | 1012.2 |
| 20260506160513 | 60 | 189 | 6.0 | 12.0 | 0.09 | 0.27 | 0.27 | 89 | 1012.1 |
| 20260506155745 | 60 | 176 | 6.0 | 10.0 | 0.10 | 0.27 | 0.27 | 90 | 1012.2 |
| 20260506155240 | 60 | 165 | 6.0 | 12.0 | 0.09 | 0.26 | 0.26 | 90 | 1012.3 |
| 20260506154741 | 60 | 182 | 6.0 | 12.0 | 0.09 | 0.26 | 0.26 | 89 | 1012.3 |
| 20260506154242 | 59 | 183 | 4.0 | 10.0 | 0.09 | 0.25 | 0.25 | 89 | 1012.4 |
| 20260506153741 | 59 | 187 | 3.0 | 8.0 | 0.09 | 0.24 | 0.24 | 89 | 1012.5 |
| 20260506153240 | 60 | 263 | 2.0 | 8.0 | 0.08 | 0.23 | 0.23 | 89 | 1012.6 |
| 20260506152732 | 60 | 201 | 2.0 | 8.0 | 0.07 | 0.21 | 0.21 | 89 | 1012.6 |
| 20260506152233 | 60 | 202 | 4.0 | 10.0 | 0.06 | 0.20 | 0.20 | 89 | 1012.7 |
| 20260506151730 | 60 | 212 | 6.0 | 11.0 | 0.06 | 0.20 | 0.20 | 89 | 1012.7 |
| 20260506151232 | 60 | 192 | 7.0 | 13.0 | 0.06 | 0.19 | 0.19 | 89 | 1012.6 |
| 20260506150729 | 60 | 175 | 7.0 | 13.0 | 0.05 | 0.18 | 0.19 | 89 | 1012.5 |
| 20260506150230 | 60 | 178 | 7.0 | 12.0 | 0.06 | 0.18 | 0.18 | 89 | 1012.4 |
| 20260506145728 | 60 | 192 | 8.0 | 14.0 | 0.06 | 0.17 | 0.17 | 89 | 1012.5 |
| 20260506145231 | 60 | 181 | 9.0 | 14.0 | 0.06 | 0.17 | 0.17 | 88 | 1012.4 |
| 20260506144729 | 60 | 195 | 8.0 | 14.0 | 0.07 | 0.17 | 0.17 | 88 | 1012.1 |
| 20260506144229 | 60 | 178 | 8.0 | 13.0 | 0.07 | 0.16 | 0.16 | 88 | 1012.3 |
| 20260506143730 | 60 | 184 | 8.0 | 14.0 | 0.07 | 0.15 | 0.15 | 88 | 1012.3 |
| 20260506143224 | 60 | 172 | 8.0 | 16.0 | 0.06 | 0.14 | 0.15 | 88 | 1012.4 |
| 20260506142722 | 60 | 196 | 8.0 | 16.0 | 0.07 | 0.14 | 0.14 | 88 | 1012.5 |
| 20260506142224 | 60 | 171 | 7.0 | 11.0 | 0.07 | 0.14 | 0.14 | 89 | 1012.5 |
| 20260506141723 | 60 | 170 | 7.0 | 11.0 | 0.08 | 0.14 | 0.14 | 88 | 1012.5 |
| 20260506141222 | 60 | 167 | 6.0 | 11.0 | 0.08 | 0.13 | 0.14 | 89 | 1012.3 |
| 20260506140723 | 59 | 180 | 6.0 | 11.0 | 0.09 | 0.13 | 0.13 | 88 | 1012.4 |
| 20260506140224 | 59 | 159 | 6.0 | 9.0 | 0.09 | 0.12 | 0.12 | 88 | 1012.3 |
| 20260506135955 | 59 | 178 | 7.0 | 12.0 | 0.08 | 0.11 | 0.12 | 88 | 1012.5 |
| 20260506135455 | 59 | 176 | 7.0 | 13.0 | 0.09 | 0.11 | 0.11 | 87 | 1012.5 |
| 20260506134724 | 59 | 178 | 7.0 | 13.0 | 0.09 | 0.10 | 0.10 | 87 | 1012.7 |
| 20260506134501 | 59 | 201 | 6.0 | 12.0 | 0.08 | 0.08 | 0.09 | 86 | 1012.8 |
| 20260506134224 | 59 | 171 | 6.0 | 12.0 | 0.09 | 0.09 | 0.09 | 87 | 1012.8 |
| 20260506133851 | 60 | 193 | 6.0 | 11.0 | 0.08 | 0.08 | 0.08 | 86 | 1013.0 |
| 20260506132731 | 60 | 194 | 7.0 | 13.0 | 0.07 | 0.07 | 0.07 | 84 | 1013.0 |
| 20260506132725 | 60 | 221 | 6.0 | 13.0 | 0.07 | 0.07 | 0.07 | 85 | 1013.0 |
| 20260506131723 | 60 | 171 | 6.0 | 15.0 | 0.06 | 0.06 | 0.06 | 84 | 1013.1 |
| 20260506131222 | 60 | 165 | 5.0 | 15.0 | 0.05 | 0.05 | 0.05 | 83 | 1013.1 |
| 20260506130725 | 60 | 188 | 4.0 | 12.0 | 0.04 | 0.04 | 0.04 | 82 | 1013.3 |
| 20260506130222 | 61 | 106 | 4.0 | 12.0 | 0.03 | 0.03 | 0.04 | 81 | 1013.4 |
| 20260506125721 | 61 | 200 | 4.0 | 10.0 | 0.02 | 0.02 | 0.03 | 80 | 1013.4 |
| 20260506125222 | 61 | 178 | 5.0 | 15.0 | 0.02 | 0.02 | 0.02 | 78 | 1013.3 |
| 20260506124714 | 62 | 172 | 7.0 | 15.0 | 0.01 | 0.01 | 0.01 | 77 | 1013.2 |
| 20260506124216 | 62 | 181 | 7.0 | 13.0 | 0.00 | 0.00 | 0.01 | 76 | 1013.1 |
| 20260506123715 | 62 | 212 | 7.0 | 13.0 | 0.00 | 0.00 | 0.00 | 74 | 1013.1 |
| 20260506123216 | 62 | 165 | 8.0 | 13.0 | 0.00 | 0.00 | 0.00 | 73 | 1012.8 |
| 20260506122715 | 63 | 187 | 8.0 | 13.0 | 0.00 | 0.00 | 0.00 | 71 | 1012.8 |
| 20260506122214 | 63 | 182 | 8.0 | 14.0 | 0.00 | 0.00 | 0.00 | 70 | 1012.6 |
| 20260506121714 | 64 | 191 | 8.0 | 14.0 | 0.00 | 0.00 | 0.00 | 68 | 1012.5 |
| 20260506121214 | 64 | 184 | 7.0 | 13.0 | 0.00 | 0.00 | 0.00 | 68 | 1012.5 |
| 20260506120714 | 64 | 195 | 7.0 | 15.0 | 0.00 | 0.00 | 0.00 | 67 | 1012.7 |
| 20260506120214 | 64 | 176 | 6.0 | 15.0 | 0.00 | 0.00 | 0.00 | 67 | 1012.6 |
| 20260506115714 | 64 | 235 | 5.0 | 11.0 | 0.00 | 0.00 | 0.00 | 65 | 1012.8 |
| 20260506115216 | 64 | 197 | 6.0 | 11.0 | 0.00 | 0.00 | 0.00 | 65 | 1012.8 |
| 20260506115212 | 64 | 223 | 5.0 | 11.0 | 0.00 | 0.00 | 0.00 | 66 | 1012.8 |
| 20260506114211 | 64 | 171 | 5.0 | 11.0 | 0.00 | 0.00 | 0.00 | 64 | 1012.7 |
| 20260506113710 | 64 | 180 | 4.0 | 8.0 | 0.00 | 0.00 | 0.00 | 66 | 1012.7 |
| 20260506113213 | 64 | 178 | 3.0 | 8.0 | 0.00 | 0.00 | 0.00 | 66 | 1012.7 |
| 20260506112942 | 64 | 182 | 3.0 | 6.0 | 0.00 | 0.00 | 0.00 | 65 | 1012.7 |
| 20260506112209 | 64 | 182 | 3.0 | 7.0 | 0.00 | 0.00 | 0.00 | 64 | 1012.7 |
| 20260506111707 | 64 | 181 | 3.0 | 7.0 | 0.00 | 0.00 | 0.00 | 62 | 1012.6 |
| 20260506111208 | 64 | 181 | 3.0 | 7.0 | 0.00 | 0.00 | 0.00 | 63 | 1012.6 |
| 20260506110705 | 64 | 181 | 2.0 | 7.0 | 0.00 | 0.00 | 0.00 | 63 | 1012.4 |
| 20260506110208 | 65 | 205 | 1.0 | 6.0 | 0.00 | 0.00 | 0.00 | 62 | 1012.5 |
| 20260506105703 | 65 | 217 | 1.0 | 4.0 | 0.00 | 0.00 | 0.00 | 60 | 1012.6 |
| 20260506105204 | 64 | 272 | 1.0 | 3.0 | 0.00 | 0.00 | 0.00 | 60 | 1012.6 |
| 20260506104702 | 64 | 186 | 2.0 | 5.0 | 0.00 | 0.00 | 0.00 | 60 | 1012.4 |
| 20260506104159 | 65 | 186 | 2.0 | 5.0 | 0.00 | 0.00 | 0.00 | 60 | 1012.3 |
| 20260506103657 | 64 | 186 | 2.0 | 6.0 | 0.00 | 0.00 | 0.00 | 59 | 1012.3 |
| 20260506103158 | 64 | 186 | 3.0 | 6.0 | 0.00 | 0.00 | 0.00 | 60 | 1012.1 |
| 20260506102922 | 64 | 186 | 3.0 | 8.0 | 0.00 | 0.00 | 0.00 | 60 | 1012.0 |
| 20260506102421 | 64 | 186 | 4.0 | 8.0 | 0.00 | 0.00 | 0.00 | 59 | 1012.0 |
| 20260506101653 | 65 | 186 | 3.0 | 6.0 | 0.00 | 0.00 | 0.00 | 60 | 1012.0 |
| 20260506101153 | 65 | 186 | 3.0 | 7.0 | 0.00 | 0.00 | 0.00 | 58 | 1012.2 |
| 20260506100653 | 65 | 186 | 4.0 | 7.0 | 0.00 | 0.00 | 0.00 | 58 | 1012.1 |
| 20260506100151 | 65 | 186 | 4.0 | 7.0 | 0.00 | 0.00 | 0.00 | 58 | 1012.0 |
| 20260506095649 | 65 | 185 | 3.0 | 7.0 | 0.00 | 0.00 | 0.00 | 58 | 1011.9 |
| 20260506095150 | 65 | 184 | 4.0 | 7.0 | 0.00 | 0.00 | 0.00 | 57 | 1012.1 |
| 20260506094650 | 65 | 184 | 4.0 | 8.0 | 0.00 | 0.00 | 0.00 | 57 | 1012.2 |
| 20260506094422 | 65 | 180 | 4.0 | 8.0 | 0.00 | 0.00 | 0.00 | 56 | 1012.2 |
| 20260506093650 | 65 | 179 | 4.0 | 7.0 | 0.00 | 0.00 | 0.00 | 56 | 1012.2 |
| 20260506093148 | 65 | 177 | 4.0 | 7.0 | 0.00 | 0.00 | 0.00 | 57 | 1012.2 |
| 20260506092647 | 65 | 177 | 4.0 | 7.0 | 0.00 | 0.00 | 0.00 | 56 | 1012.2 |
| 20260506092418 | 65 | 172 | 4.0 | 6.0 | 0.00 | 0.00 | 0.00 | 57 | 1012.2 |
| 20260506091646 | 65 | 172 | 4.0 | 7.0 | 0.00 | 0.00 | 0.00 | 56 | 1012.1 |
| 20260506091147 | 64 | 171 | 4.0 | 8.0 | 0.00 | 0.00 | 0.00 | 56 | 1012.2 |
| 20260506090648 | 64 | 171 | 3.0 | 8.0 | 0.00 | 0.00 | 0.00 | 57 | 1012.2 |
| 20260506090147 | 64 | 167 | 3.0 | 5.0 | 0.00 | 0.00 | 0.00 | 58 | 1012.2 |
| 20260506085918 | 64 | 167 | 3.0 | 5.0 | 0.00 | 0.00 | 0.00 | 58 | 1012.2 |
| 20260506085807 | 64 | 167 | 2.0 | 6.0 | 0.00 | 0.00 | 0.00 | 57 | 1012.3 |
| 20260506084648 | 64 | 167 | 2.0 | 6.0 | 0.00 | 0.00 | 0.00 | 56 | 1012.4 |
| 20260506084147 | 64 | 167 | 2.0 | 4.0 | 0.00 | 0.00 | 0.00 | 56 | 1012.4 |
| 20260506083648 | 64 | 167 | 2.0 | 4.0 | 0.00 | 0.00 | 0.00 | 55 | 1012.3 |
| 20260506083147 | 64 | 167 | 2.0 | 4.0 | 0.00 | 0.00 | 0.00 | 55 | 1012.5 |
| 20260506082644 | 65 | 167 | 2.0 | 5.0 | 0.00 | 0.00 | 0.00 | 55 | 1012.5 |
| 20260506082145 | 65 | 167 | 2.0 | 5.0 | 0.00 | 0.00 | 0.00 | 53 | 1012.5 |
| 20260506081645 | 65 | 167 | 2.0 | 5.0 | 0.00 | 0.00 | 0.00 | 55 | 1012.3 |
| 20260506081418 | 65 | 167 | 2.0 | 5.0 | 0.00 | 0.00 | 0.00 | 53 | 1012.4 |
| 20260506080645 | 65 | 167 | 3.0 | 6.0 | 0.00 | 0.00 | 0.00 | 54 | 1012.4 |
| 20260506080144 | 65 | 167 | 4.0 | 6.0 | 0.00 | 0.00 | 0.00 | 55 | 1012.3 |
| 20260506073142 | 65 | 183 | 4.0 | 7.0 | 0.00 | 0.00 | 0.00 | 53 | 1012.4 |
| 20260506072640 | 65 | 183 | 4.0 | 7.0 | 0.00 | 0.00 | 0.00 | 52 | 1012.4 |
| 20260506072410 | 65 | 182 | 3.0 | 7.0 | 0.00 | 0.00 | 0.00 | 51 | 1012.5 |
| 20260506071639 | 66 | 182 | 3.0 | 7.0 | 0.00 | 0.00 | 0.00 | 52 | 1012.5 |
| 20260506071138 | 66 | 196 | 2.0 | 6.0 | 0.00 | 0.00 | 0.00 | 50 | 1012.6 |
| 20260506070638 | 66 | 188 | 2.0 | 7.0 | 0.00 | 0.00 | 0.00 | 50 | 1012.6 |
| 20260506070134 | 66 | 187 | 3.0 | 7.0 | 0.00 | 0.00 | 0.00 | 50 | 1012.6 |
| 20260506062132 | 66 | 184 | 2.0 | 6.0 | 0.00 | 0.00 | 0.00 | 49 | 1012.9 |
| 20260506061632 | 66 | 181 | 2.0 | 7.0 | 0.00 | 0.00 | 0.00 | 49 | 1012.9 |
| 20260506061404 | 66 | 193 | 3.0 | 9.0 | 0.00 | 0.00 | 0.00 | 48 | 1012.9 |
| 20260506060630 | 66 | 187 | 3.0 | 9.0 | 0.00 | 0.00 | 0.00 | 49 | 1012.9 |
| 20260506060130 | 66 | 184 | 2.0 | 7.0 | 0.00 | 0.00 | 0.00 | 49 | 1012.9 |
| 20260506050620 | 65 | 186 | 3.0 | 7.0 | 0.00 | 0.00 | 0.00 | 52 | 1013.3 |
| 20260506050117 | 65 | 187 | 4.0 | 6.0 | 0.00 | 0.00 | 0.00 | 52 | 1013.4 |
| 20260506045117 | 64 | 185 | 4.0 | 8.0 | 0.00 | 0.00 | 0.00 | 56 | 1013.3 |
| 20260506044616 | 64 | 186 | 3.0 | 8.0 | 0.00 | 0.00 | 0.00 | 56 | 1013.3 |
| 20260506044115 | 63 | 188 | 2.0 | 7.0 | 0.00 | 0.00 | 0.00 | 58 | 1013.3 |
| 20260506043616 | 63 | 200 | 1.0 | 4.0 | 0.00 | 0.00 | 0.00 | 57 | 1013.2 |
| 20260506043345 | 64 | 200 | 0.0 | 3.0 | 0.00 | 0.00 | 0.00 | 56 | 1013.2 |
| 20260506042614 | 64 | 200 | 0.0 | 1.0 | 0.00 | 0.00 | 0.00 | 56 | 1013.4 |
| 20260506042113 | 65 | 200 | 0.0 | 1.0 | 0.00 | 0.00 | 0.00 | 58 | 1013.4 |
| 20260506041614 | 65 | 200 | 0.0 | 0.0 | 0.00 | 0.00 | 0.00 | 57 | 1013.5 |
| 20260506041113 | 65 | 200 | 0.0 | 0.0 | 0.00 | 0.00 | 0.00 | 58 | 1013.4 |
| 20260506040614 | 65 | 200 | 0.0 | 0.0 | 0.00 | 0.00 | 0.00 | 58 | 1013.4 |
| 20260506040113 | 65 | 200 | 0.0 | 0.0 | 0.00 | 0.00 | 0.00 | 58 | 1013.5 |
| 20260506035842 | 65 | 200 | 0.0 | 0.0 | 0.00 | 0.00 | 0.00 | 58 | 1013.5 |
| 20260506035112 | 65 | 200 | 0.0 | 2.0 | 0.00 | 0.00 | 0.00 | 57 | 1013.6 |
| 20260506034610 | 65 | 200 | 0.0 | 2.0 | 0.00 | 0.00 | 0.00 | 57 | 1013.5 |
| 20260506034109 | 65 | 200 | 0.0 | 0.0 | 0.00 | 0.00 | 0.00 | 57 | 1013.6 |
| 20260506033610 | 65 | 200 | 0.0 | 2.0 | 0.00 | 0.00 | 0.00 | 57 | 1013.6 |
| 20260506033109 | 65 | 200 | 0.0 | 2.0 | 0.00 | 0.00 | 0.00 | 57 | 1013.5 |
| 20260506032608 | 66 | 200 | 0.0 | 0.0 | 0.00 | 0.00 | 0.00 | 57 | 1013.5 |
| 20260506032339 | 66 | 200 | 0.0 | 1.0 | 0.00 | 0.00 | 0.00 | 56 | 1013.5 |
| 20260506031839 | 66 | 200 | 0.0 | 1.0 | 0.00 | 0.00 | 0.00 | 56 | 1013.5 |
| 20260506031108 | 66 | 200 | 0.0 | 1.0 | 0.00 | 0.00 | 0.00 | 56 | 1013.5 |
| 20260506030605 | 66 | 200 | 0.0 | 0.0 | 0.00 | 0.00 | 0.00 | 56 | 1013.5 |
| 20260506030338 | 66 | 200 | 0.0 | 0.0 | 0.00 | 0.00 | 0.00 | 56 | 1013.4 |
| 20260506025835 | 66 | 200 | 0.0 | 0.0 | 0.00 | 0.00 | 0.00 | 56 | 1013.4 |